INTELSAT 30 (IS-30)

Last updated on Sun Jun 21 2026 00:03:06 GMT+0000 (Coordinated Universal Time)

1 40271U 14062A 26171.15927381 -.00000154 00000+0 00000+0 0 9999 2 40271 0.0266 53.4926 0001017 9.4262 167.7293 1.00256820 6826
UTC large
Height (km)
Speed (km/s)
/
Latitude / Longitude
Inclination (degrees)
Orbital Period (minutes)
Azimuth
Elevation
Range (km)
Doppler Factor

Next 0 passes for location: London (51.5072 / 0.1276)

No passes found over London.
INTELSAT 30 (IS-30)